Time,TemperatureF,DewpointF,PressureIn,WindDirection,WindDirectionDegrees,WindSpeedMPH,WindSpeedGustMPH,Humidity,HourlyPrecipIn,Conditions,Clouds,dailyrainin,SoftwareType,DateUTC
2013-10-26 00:02:00,33.5,31.2,31.09,SSW,205,0.0,3.0,91,0.00,RA,RA,0.00,WeatherDisplay:10.37,2013-10-26 04:02:00,
2013-10-26 00:07:00,33.5,31.2,31.09,SSW,205,0.0,1.0,91,0.00,RA,RA,0.00,WeatherDisplay:10.37,2013-10-26 04:07:00,
2013-10-26 00:12:00,33.4,30.8,31.08,SSW,205,0.0,2.0,90,0.00,CLR,CLR,0.00,WeatherDisplay:10.37,2013-10-26 04:12:00,
2013-10-26 00:22:00,33.3,31.0,31.09,SSW,205,0.0,2.0,91,0.00,CLR,CLR,0.00,WeatherDisplay:10.37,2013-10-26 04:22:00,
2013-10-26 00:27:00,33.2,30.9,31.09,SSW,205,1.0,4.0,91,0.00,CLR,CLR,0.00,WeatherDisplay:10.37,2013-10-26 04:27:00,
2013-10-26 00:32:00,33.2,30.9,31.09,SSW,205,0.0,0.0,91,0.00,CLR,CLR,0.00,WeatherDisplay:10.37,2013-10-26 04:32:00,
2013-10-26 00:37:00,33.1,30.8,31.09,SSW,205,0.0,5.0,91,0.00,CLR,CLR,0.00,WeatherDisplay:10.37,2013-10-26 04:37:00,
2013-10-26 00:42:00,33.1,30.8,31.08,SSW,205,1.0,4.0,91,0.00,CLR,CLR,0.00,WeatherDisplay:10.37,2013-10-26 04:42:00,
2013-10-26 00:47:00,33.2,31.1,31.08,SSW,205,3.0,5.0,92,0.00,CLR,CLR,0.00,WeatherDisplay:10.37,2013-10-26 04:47:00,
2013-10-26 00:52:00,33.3,31.2,31.08,SSW,205,0.0,4.0,92,0.00,CLR,CLR,0.00,WeatherDisplay:10.37,2013-10-26 04:52:00,
2013-10-26 00:57:00,33.3,31.2,31.08,SSW,205,1.0,5.0,92,0.00,CLR,CLR,0.00,WeatherDisplay:10.37,2013-10-26 04:57:00,
2013-10-26 01:02:00,33.2,31.1,31.08,SSW,205,1.0,4.0,92,0.00,CLR,CLR,0.00,WeatherDisplay:10.37,2013-10-26 05:02:00,
2013-10-26 01:07:00,33.1,31.0,31.07,SSW,205,1.0,4.0,92,0.00,CLR,CLR,0.00,WeatherDisplay:10.37,2013-10-26 05:07:00,
2013-10-26 01:12:00,33.0,30.9,31.07,SSW,205,2.0,4.0,92,0.00,CLR,CLR,0.00,WeatherDisplay:10.37,2013-10-26 05:12:00,
2013-10-26 01:17:00,33.0,30.9,31.07,SSW,205,2.0,4.0,92,0.00,CLR,CLR,0.00,WeatherDisplay:10.37,2013-10-26 05:17:00,
2013-10-26 01:22:00,32.5,30.5,31.07,SW,216,1.0,4.0,92,0.00,CLR,CLR,0.00,WeatherDisplay:10.37,2013-10-26 05:22:00,
2013-10-26 01:27:00,32.3,30.0,31.07,NNW,334,0.0,0.0,91,0.00,CLR,CLR,0.00,WeatherDisplay:10.37,2013-10-26 05:27:00,
2013-10-26 01:32:00,32.2,29.9,31.07,North,0,0.0,0.0,91,0.00,CLR,CLR,0.00,WeatherDisplay:10.37,2013-10-26 05:32:00,
2013-10-26 01:37:00,32.1,29.8,31.07,North,0,0.0,0.0,91,0.00,CLR,CLR,0.00,WeatherDisplay:10.37,2013-10-26 05:37:00,
2013-10-26 01:42:00,32.0,29.7,31.07,North,0,0.0,0.0,91,0.00,CLR,CLR,0.00,WeatherDisplay:10.37,2013-10-26 05:42:00,
2013-10-26 01:47:00,31.9,29.9,31.07,North,1,0.0,0.0,92,0.00,CLR,CLR,0.00,WeatherDisplay:10.37,2013-10-26 05:47:00,
2013-10-26 01:52:00,31.8,29.5,31.07,North,1,0.0,0.0,91,0.00,CLR,CLR,0.00,WeatherDisplay:10.37,2013-10-26 05:52:00,
2013-10-26 01:57:00,31.7,29.4,31.06,North,0,0.0,0.0,91,0.00,CLR,CLR,0.00,WeatherDisplay:10.37,2013-10-26 05:57:00,
2013-10-26 02:02:00,31.8,29.8,31.06,North,0,0.0,0.0,92,0.00,CLR,CLR,0.00,WeatherDisplay:10.37,2013-10-26 06:02:00,
2013-10-26 02:07:00,31.9,29.8,31.05,North,0,0.0,0.0,92,0.00,CLR,CLR,0.00,WeatherDisplay:10.37,2013-10-26 06:07:00,
2013-10-26 02:12:00,31.9,29.8,31.05,North,1,0.0,0.0,92,0.00,CLR,CLR,0.00,WeatherDisplay:10.37,2013-10-26 06:12:00,
2013-10-26 02:17:00,32.0,29.9,31.05,North,1,0.0,0.0,92,0.00,CLR,CLR,0.00,WeatherDisplay:10.37,2013-10-26 06:17:00,
2013-10-26 02:22:00,32.0,29.7,31.05,North,1,0.0,0.0,91,0.00,CLR,CLR,0.00,WeatherDisplay:10.37,2013-10-26 06:22:00,
2013-10-26 02:27:00,31.9,29.6,31.05,North,0,0.0,0.0,91,0.00,CLR,CLR,0.00,WeatherDisplay:10.37,2013-10-26 06:27:00,
2013-10-26 02:32:00,32.8,30.7,31.04,South,179,3.0,7.0,92,0.00,CLR,CLR,0.00,WeatherDisplay:10.37,2013-10-26 06:32:00,
2013-10-26 02:37:00,32.8,30.7,31.04,South,173,5.0,6.0,92,0.00,CLR,CLR,0.00,WeatherDisplay:10.37,2013-10-26 06:37:00,
2013-10-26 02:42:00,32.8,30.7,31.04,South,172,5.0,6.0,92,0.00,CLR,CLR,0.00,WeatherDisplay:10.37,2013-10-26 06:42:00,
2013-10-26 02:47:00,32.8,30.5,31.04,South,177,5.0,7.0,91,0.00,CLR,CLR,0.00,WeatherDisplay:10.37,2013-10-26 06:47:00,
2013-10-26 02:52:00,32.8,30.5,31.04,South,180,3.0,9.0,91,0.00,CLR,CLR,0.00,WeatherDisplay:10.37,2013-10-26 06:52:00,
2013-10-26 02:57:00,32.9,30.5,31.04,South,181,5.0,8.0,91,0.00,CLR,CLR,0.00,WeatherDisplay:10.37,2013-10-26 06:57:00,
2013-10-26 03:02:00,33.0,30.6,31.04,South,181,3.0,7.0,91,0.00,CLR,CLR,0.00,WeatherDisplay:10.37,2013-10-26 07:02:00,
2013-10-26 03:07:00,33.0,30.7,31.03,South,183,7.0,10.0,91,0.00,CLR,CLR,0.00,WeatherDisplay:10.37,2013-10-26 07:07:00,
2013-10-26 03:12:00,33.2,30.9,31.03,South,183,6.0,12.0,91,0.00,CLR,CLR,0.00,WeatherDisplay:10.37,2013-10-26 07:12:00,
2013-10-26 03:17:00,33.4,30.8,31.02,South,180,3.0,9.0,90,0.00,CLR,CLR,0.00,WeatherDisplay:10.37,2013-10-26 07:17:00,
2013-10-26 03:22:00,33.5,30.9,31.02,South,184,7.0,12.0,90,0.00,CLR,CLR,0.00,WeatherDisplay:10.37,2013-10-26 07:22:00,
2013-10-26 03:27:00,33.8,30.9,31.02,South,184,6.0,12.0,89,0.00,CLR,CLR,0.00,WeatherDisplay:10.37,2013-10-26 07:27:00,
2013-10-26 03:32:00,34.0,31.1,31.01,South,181,6.0,12.0,89,0.00,CLR,CLR,0.00,WeatherDisplay:10.37,2013-10-26 07:32:00,
2013-10-26 03:37:00,34.2,31.0,31.01,South,181,7.0,9.0,88,0.00,CLR,CLR,0.00,WeatherDisplay:10.37,2013-10-26 07:37:00,
2013-10-26 03:42:00,34.3,31.1,31.01,South,182,6.0,10.0,88,0.00,CLR,CLR,0.00,WeatherDisplay:10.37,2013-10-26 07:42:00,
2013-10-26 03:47:00,34.5,31.0,31.01,South,182,6.0,12.0,87,0.00,CLR,CLR,0.00,WeatherDisplay:10.37,2013-10-26 07:47:00,
2013-10-26 03:52:00,34.6,31.1,31.00,South,179,6.0,9.0,87,0.00,CLR,CLR,0.00,WeatherDisplay:10.37,2013-10-26 07:52:00,
2013-10-26 03:57:00,34.7,31.2,31.00,South,176,6.0,10.0,87,0.00,CLR,CLR,0.00,WeatherDisplay:10.37,2013-10-26 07:57:00,
2013-10-26 04:02:00,34.8,31.1,30.99,South,177,5.0,12.0,86,0.00,CLR,CLR,0.00,WeatherDisplay:10.37,2013-10-26 08:02:00,
2013-10-26 04:07:00,35.0,31.2,30.99,South,180,7.0,12.0,86,0.00,CLR,CLR,0.00,WeatherDisplay:10.37,2013-10-26 08:07:00,
2013-10-26 04:12:00,35.2,31.1,30.99,South,183,6.0,9.0,85,0.00,CLR,CLR,0.00,WeatherDisplay:10.37,2013-10-26 08:12:00,
2013-10-26 04:17:00,35.3,31.2,30.99,South,186,7.0,10.0,85,0.00,CLR,CLR,0.00,WeatherDisplay:10.37,2013-10-26 08:17:00,
2013-10-26 04:22:00,35.5,31.1,30.99,South,185,7.0,12.0,84,0.00,CLR,CLR,0.00,WeatherDisplay:10.37,2013-10-26 08:22:00,
2013-10-26 04:32:00,35.8,31.1,30.98,South,176,6.0,10.0,83,0.00,CLR,CLR,0.00,WeatherDisplay:10.37,2013-10-26 08:32:00,
2013-10-26 04:37:00,35.9,31.3,30.98,South,182,6.0,12.0,83,0.00,CLR,CLR,0.00,WeatherDisplay:10.37,2013-10-26 08:37:00,
2013-10-26 04:42:00,36.1,31.1,30.98,South,184,7.0,9.0,82,0.00,CLR,CLR,0.00,WeatherDisplay:10.37,2013-10-26 08:42:00,
2013-10-26 04:47:00,36.1,31.2,30.98,South,182,5.0,12.0,82,0.00,CLR,CLR,0.00,WeatherDisplay:10.37,2013-10-26 08:47:00,
2013-10-26 04:52:00,36.3,31.0,30.98,South,183,7.0,12.0,81,0.00,CLR,CLR,0.00,WeatherDisplay:10.37,2013-10-26 08:52:00,
2013-10-26 04:57:00,36.4,31.4,30.98,South,184,7.0,10.0,82,0.00,CLR,CLR,0.00,WeatherDisplay:10.37,2013-10-26 08:57:00,
2013-10-26 05:02:00,36.4,31.1,30.98,South,185,6.0,9.0,81,0.00,CLR,CLR,0.00,WeatherDisplay:10.37,2013-10-26 09:02:00,
2013-10-26 05:07:00,36.4,31.1,30.98,South,183,5.0,9.0,81,0.00,CLR,CLR,0.00,WeatherDisplay:10.37,2013-10-26 09:07:00,
2013-10-26 05:12:00,36.4,31.1,30.98,South,177,6.0,9.0,81,0.00,CLR,CLR,0.00,WeatherDisplay:10.37,2013-10-26 09:12:00,
2013-10-26 05:17:00,36.4,31.1,30.97,South,173,6.0,10.0,81,0.00,CLR,CLR,0.00,WeatherDisplay:10.37,2013-10-26 09:17:00,
2013-10-26 05:22:00,36.6,31.0,30.97,South,175,6.0,12.0,80,0.00,CLR,CLR,0.00,WeatherDisplay:10.37,2013-10-26 09:22:00,
2013-10-26 05:27:00,36.7,30.8,30.96,South,181,7.0,12.0,79,0.00,CLR,CLR,0.00,WeatherDisplay:10.37,2013-10-26 09:27:00,
2013-10-26 05:32:00,36.8,30.9,30.97,South,182,6.0,9.0,79,0.00,CLR,CLR,0.00,WeatherDisplay:10.37,2013-10-26 09:32:00,
2013-10-26 05:37:00,37.1,30.9,30.97,South,186,7.0,12.0,78,0.00,CLR,CLR,0.00,WeatherDisplay:10.37,2013-10-26 09:37:00,
2013-10-26 05:42:00,37.3,30.7,30.96,South,186,6.0,10.0,77,0.00,CLR,CLR,0.00,WeatherDisplay:10.37,2013-10-26 09:42:00,
2013-10-26 05:47:00,37.5,30.9,30.96,South,184,6.0,10.0,77,0.00,CLR,CLR,0.00,WeatherDisplay:10.37,2013-10-26 09:47:00,
2013-10-26 05:52:00,37.6,30.7,30.96,South,186,6.0,12.0,76,0.00,CLR,CLR,0.00,WeatherDisplay:10.37,2013-10-26 09:52:00,
2013-10-26 05:57:00,37.7,30.5,30.96,SSW,193,7.0,12.0,75,0.00,CLR,CLR,0.00,WeatherDisplay:10.37,2013-10-26 09:57:00,
2013-10-26 06:02:00,37.9,30.4,30.96,SSW,195,7.0,12.0,74,0.00,CLR,CLR,0.00,WeatherDisplay:10.37,2013-10-26 10:02:00,
2013-10-26 06:07:00,37.9,30.4,30.96,South,189,7.0,10.0,74,0.00,CLR,CLR,0.00,WeatherDisplay:10.37,2013-10-26 10:07:00,
2013-10-26 06:12:00,37.9,30.1,30.96,SSW,193,7.0,12.0,73,0.00,CLR,CLR,0.00,WeatherDisplay:10.37,2013-10-26 10:12:00,
2013-10-26 06:17:00,38.0,30.1,30.95,South,190,8.0,14.0,73,0.00,CLR,CLR,0.00,WeatherDisplay:10.37,2013-10-26 10:17:00,
2013-10-26 06:22:00,38.0,30.1,30.95,South,179,8.0,14.0,73,0.00,CLR,CLR,0.00,WeatherDisplay:10.37,2013-10-26 10:22:00,
2013-10-26 06:27:00,38.0,29.8,30.95,South,183,6.0,10.0,72,0.00,CLR,CLR,0.00,WeatherDisplay:10.37,2013-10-26 10:27:00,
2013-10-26 06:32:00,38.0,29.8,30.94,South,188,5.0,14.0,72,0.00,CLR,CLR,0.00,WeatherDisplay:10.37,2013-10-26 10:32:00,
2013-10-26 06:37:00,38.0,30.1,30.94,SSW,192,8.0,12.0,73,0.00,CLR,CLR,0.00,WeatherDisplay:10.37,2013-10-26 10:37:00,
2013-10-26 06:42:00,38.1,29.9,30.94,SSW,192,8.0,13.0,72,0.00,CLR,CLR,0.00,WeatherDisplay:10.37,2013-10-26 10:42:00,
2013-10-26 06:47:00,38.1,30.2,30.93,South,184,7.0,14.0,73,0.00,CLR,CLR,0.00,WeatherDisplay:10.37,2013-10-26 10:47:00,
2013-10-26 06:52:00,37.9,30.0,30.93,South,174,6.0,12.0,73,0.00,CLR,CLR,0.00,WeatherDisplay:10.37,2013-10-26 10:52:00,
2013-10-26 06:57:00,37.9,30.0,30.93,South,181,6.0,15.0,73,0.00,CLR,CLR,0.00,WeatherDisplay:10.37,2013-10-26 10:57:00,
2013-10-26 07:02:00,37.9,30.0,30.93,South,184,7.0,10.0,73,0.00,CLR,CLR,0.00,WeatherDisplay:10.37,2013-10-26 11:02:00,
2013-10-26 07:07:00,37.9,30.4,30.93,South,191,3.0,12.0,74,0.00,CLR,CLR,0.00,WeatherDisplay:10.37,2013-10-26 11:07:00,
2013-10-26 07:12:00,37.9,30.0,30.92,SSW,192,7.0,10.0,73,0.00,CLR,CLR,0.00,WeatherDisplay:10.37,2013-10-26 11:12:00,
2013-10-26 07:17:00,38.0,30.1,30.92,South,191,6.0,12.0,73,0.00,CLR,CLR,0.00,WeatherDisplay:10.37,2013-10-26 11:17:00,
2013-10-26 07:22:00,38.0,30.1,30.92,South,184,7.0,9.0,73,0.00,CLR,CLR,0.00,WeatherDisplay:10.37,2013-10-26 11:22:00,
2013-10-26 07:27:00,37.9,30.4,30.91,South,182,8.0,12.0,74,0.00,CLR,CLR,0.00,WeatherDisplay:10.37,2013-10-26 11:27:00,
2013-10-26 07:32:00,37.9,30.0,30.91,South,183,8.0,12.0,73,0.00,CLR,CLR,0.00,WeatherDisplay:10.37,2013-10-26 11:32:00,
2013-10-26 07:37:00,38.0,29.8,30.90,South,181,8.0,13.0,72,0.00,CLR,CLR,0.00,WeatherDisplay:10.37,2013-10-26 11:37:00,
2013-10-26 07:42:00,38.1,29.9,30.90,South,180,7.0,15.0,72,0.00,CLR,CLR,0.00,WeatherDisplay:10.37,2013-10-26 11:42:00,
2013-10-26 07:47:00,37.9,30.0,30.90,South,182,9.0,13.0,73,0.00,CLR,CLR,0.00,WeatherDisplay:10.37,2013-10-26 11:47:00,
2013-10-26 07:52:00,37.8,29.9,30.90,South,188,9.0,12.0,73,0.00,CLR,CLR,0.00,WeatherDisplay:10.37,2013-10-26 11:52:00,
2013-10-26 07:57:00,37.7,29.8,30.90,South,186,10.0,18.0,73,0.00,CLR,CLR,0.00,WeatherDisplay:10.37,2013-10-26 11:57:00,
2013-10-26 08:02:00,37.8,29.9,30.89,South,185,9.0,14.0,73,0.00,CLR,CLR,0.00,WeatherDisplay:10.37,2013-10-26 12:02:00,
2013-10-26 08:07:00,37.8,29.9,30.89,South,186,9.0,16.0,73,0.00,CLR,CLR,0.00,WeatherDisplay:10.37,2013-10-26 12:07:00,
2013-10-26 08:12:00,37.7,29.8,30.89,South,186,10.0,18.0,73,0.00,CLR,CLR,0.00,WeatherDisplay:10.37,2013-10-26 12:12:00,
2013-10-26 08:17:00,37.7,29.8,30.89,South,186,9.0,15.0,73,0.00,CLR,CLR,0.00,WeatherDisplay:10.37,2013-10-26 12:17:00,
2013-10-26 08:22:00,37.7,29.8,30.89,South,188,10.0,15.0,73,0.00,CLR,CLR,0.00,WeatherDisplay:10.37,2013-10-26 12:22:00,
2013-10-26 08:27:00,37.8,29.9,30.89,South,186,9.0,16.0,73,0.00,CLR,CLR,0.00,WeatherDisplay:10.37,2013-10-26 12:27:00,
2013-10-26 08:32:00,37.9,29.7,30.88,South,187,9.0,18.0,72,0.00,CLR,CLR,0.00,WeatherDisplay:10.37,2013-10-26 12:32:00,
2013-10-26 08:42:00,38.3,30.1,30.87,South,186,10.0,22.0,72,0.00,CLR,CLR,0.00,WeatherDisplay:10.37,2013-10-26 12:42:00,
2013-10-26 08:47:00,38.4,29.8,30.87,South,190,9.0,20.0,71,0.00,CLR,CLR,0.00,WeatherDisplay:10.37,2013-10-26 12:47:00,
2013-10-26 08:52:00,38.5,29.9,30.87,South,188,8.0,16.0,71,0.00,CLR,CLR,0.00,WeatherDisplay:10.37,2013-10-26 12:52:00,
2013-10-26 08:57:00,38.8,30.2,30.87,South,191,10.0,18.0,71,0.00,CLR,CLR,0.00,WeatherDisplay:10.37,2013-10-26 12:57:00,
2013-10-26 09:02:00,39.1,30.1,30.87,South,189,10.0,20.0,70,0.00,CLR,CLR,0.00,WeatherDisplay:10.37,2013-10-26 13:02:00,
2013-10-26 09:07:00,39.3,30.3,30.87,South,188,14.0,18.0,70,0.00,CLR,CLR,0.00,WeatherDisplay:10.37,2013-10-26 13:07:00,
2013-10-26 09:12:00,39.3,30.0,30.87,South,189,12.0,24.0,69,0.00,CLR,CLR,0.00,WeatherDisplay:10.37,2013-10-26 13:12:00,
2013-10-26 09:17:00,39.4,30.1,30.87,South,191,12.0,24.0,69,0.00,CLR,CLR,0.00,WeatherDisplay:10.37,2013-10-26 13:17:00,
2013-10-26 09:22:00,39.6,30.2,30.88,South,189,13.0,18.0,69,0.00,CLR,CLR,0.00,WeatherDisplay:10.37,2013-10-26 13:22:00,
2013-10-26 09:27:00,39.8,30.1,30.87,South,184,13.0,20.0,68,0.00,CLR,CLR,0.00,WeatherDisplay:10.37,2013-10-26 13:27:00,
2013-10-26 09:32:00,40.1,30.3,30.86,South,190,8.0,20.0,68,0.00,CLR,CLR,0.00,WeatherDisplay:10.37,2013-10-26 13:32:00,
2013-10-26 09:37:00,40.5,30.8,30.86,South,184,10.0,17.0,68,0.00,CLR,CLR,0.00,WeatherDisplay:10.37,2013-10-26 13:37:00,
2013-10-26 09:42:00,40.7,30.6,30.86,South,186,9.0,17.0,67,0.00,CLR,CLR,0.00,WeatherDisplay:10.37,2013-10-26 13:42:00,
2013-10-26 09:47:00,41.0,30.9,30.86,SSW,195,12.0,15.0,67,0.00,CLR,CLR,0.00,WeatherDisplay:10.37,2013-10-26 13:47:00,
2013-10-26 09:52:00,41.5,31.3,30.86,SSW,200,7.0,17.0,67,0.00,CLR,CLR,0.00,WeatherDisplay:10.37,2013-10-26 13:52:00,
2013-10-26 09:57:00,41.6,30.7,30.86,SSW,202,13.0,20.0,65,0.00,CLR,CLR,0.00,WeatherDisplay:10.37,2013-10-26 13:57:00,
2013-10-26 10:02:00,41.6,30.7,30.85,SSW,194,10.0,21.0,65,0.00,CLR,CLR,0.00,WeatherDisplay:10.37,2013-10-26 14:02:00,
2013-10-26 10:07:00,41.6,30.7,30.85,SSW,192,9.0,16.0,65,0.00,CLR,CLR,0.00,WeatherDisplay:10.37,2013-10-26 14:07:00,
2013-10-26 10:17:00,42.1,30.8,30.85,SSW,198,12.0,17.0,64,0.00,CLR,CLR,0.00,WeatherDisplay:10.37,2013-10-26 14:17:00,
2013-10-26 10:22:00,42.2,30.9,30.84,SSW,200,7.0,16.0,64,0.00,CLR,CLR,0.00,WeatherDisplay:10.37,2013-10-26 14:22:00,
2013-10-26 10:27:00,42.4,31.1,30.84,SSW,195,9.0,22.0,64,0.00,CLR,CLR,0.00,WeatherDisplay:10.37,2013-10-26 14:27:00,
2013-10-26 10:32:00,42.6,30.9,30.84,South,187,13.0,24.0,63,0.00,CLR,CLR,0.00,WeatherDisplay:10.37,2013-10-26 14:32:00,
2013-10-26 10:37:00,42.7,31.4,30.83,SSW,192,8.0,18.0,64,0.00,CLR,CLR,0.00,WeatherDisplay:10.37,2013-10-26 14:37:00,
2013-10-26 10:42:00,42.7,30.6,30.83,SSW,194,14.0,21.0,62,0.00,CLR,CLR,0.00,WeatherDisplay:10.37,2013-10-26 14:42:00,
2013-10-26 10:47:00,42.7,30.6,30.83,SSW,195,10.0,18.0,62,0.00,CLR,CLR,0.00,WeatherDisplay:10.37,2013-10-26 14:47:00,
2013-10-26 10:52:00,42.7,31.0,30.82,SSW,198,7.0,20.0,63,0.00,CLR,CLR,0.00,WeatherDisplay:10.37,2013-10-26 14:52:00,
2013-10-26 10:57:00,42.8,30.7,30.82,South,187,15.0,22.0,62,0.00,CLR,CLR,0.00,WeatherDisplay:10.37,2013-10-26 14:57:00,
2013-10-26 11:02:00,42.9,30.8,30.82,SSW,192,10.0,23.0,62,0.00,CLR,CLR,0.00,WeatherDisplay:10.37,2013-10-26 15:02:00,
2013-10-26 11:07:00,43.0,30.9,30.82,SSW,202,12.0,20.0,62,0.00,CLR,CLR,0.00,WeatherDisplay:10.37,2013-10-26 15:07:00,
2013-10-26 11:12:00,43.1,31.4,30.82,SSW,201,10.0,14.0,63,0.00,CLR,CLR,0.00,WeatherDisplay:10.37,2013-10-26 15:12:00,
2013-10-26 11:17:00,43.3,31.1,30.82,SSW,198,9.0,22.0,62,0.00,CLR,CLR,0.00,WeatherDisplay:10.37,2013-10-26 15:17:00,
2013-10-26 11:22:00,43.3,31.6,30.82,SSW,200,8.0,16.0,63,0.00,CLR,CLR,0.00,WeatherDisplay:10.37,2013-10-26 15:22:00,
2013-10-26 11:27:00,43.4,30.8,30.82,SSW,200,9.0,15.0,61,0.00,CLR,CLR,0.00,WeatherDisplay:10.37,2013-10-26 15:27:00,
2013-10-26 11:32:00,43.4,31.2,30.82,SSW,202,6.0,12.0,62,0.00,CLR,CLR,0.00,WeatherDisplay:10.37,2013-10-26 15:32:00,
2013-10-26 11:37:00,43.5,30.9,30.82,SSW,200,13.0,20.0,61,0.00,CLR,CLR,0.00,WeatherDisplay:10.37,2013-10-26 15:37:00,
2013-10-26 11:42:00,43.6,31.8,30.82,SSW,195,7.0,14.0,63,0.00,CLR,CLR,0.00,WeatherDisplay:10.37,2013-10-26 15:42:00,
2013-10-26 11:47:00,43.5,31.4,30.81,South,190,9.0,17.0,62,0.00,CLR,CLR,0.00,WeatherDisplay:10.37,2013-10-26 15:47:00,
2013-10-26 11:52:00,43.5,31.4,30.79,South,190,12.0,26.0,62,0.00,CLR,CLR,0.00,WeatherDisplay:10.37,2013-10-26 15:52:00,
2013-10-26 11:57:00,43.6,31.0,30.78,South,186,13.0,26.0,61,0.00,CLR,CLR,0.00,WeatherDisplay:10.37,2013-10-26 15:57:00,
2013-10-26 12:02:00,43.6,31.0,30.79,South,187,13.0,22.0,61,0.00,CLR,CLR,0.00,WeatherDisplay:10.37,2013-10-26 16:02:00,
2013-10-26 12:07:00,43.7,31.1,30.79,South,191,13.0,21.0,61,0.00,CLR,CLR,0.00,WeatherDisplay:10.37,2013-10-26 16:07:00,
2013-10-26 12:12:00,43.7,31.1,30.78,South,181,12.0,20.0,61,0.00,CLR,CLR,0.00,WeatherDisplay:10.37,2013-10-26 16:12:00,
2013-10-26 12:17:00,43.8,31.6,30.78,South,183,10.0,26.0,62,0.00,CLR,CLR,0.00,WeatherDisplay:10.37,2013-10-26 16:17:00,
2013-10-26 12:22:00,43.8,31.2,30.78,South,184,12.0,23.0,61,0.00,CLR,CLR,0.00,WeatherDisplay:10.37,2013-10-26 16:22:00,
2013-10-26 12:27:00,43.8,31.2,30.77,South,185,10.0,20.0,61,0.00,CLR,CLR,0.00,WeatherDisplay:10.37,2013-10-26 16:27:00,
2013-10-26 12:32:00,43.9,31.7,30.77,South,188,8.0,18.0,62,0.00,CLR,CLR,0.00,WeatherDisplay:10.37,2013-10-26 16:32:00,
2013-10-26 12:37:00,44.0,31.4,30.77,South,189,14.0,22.0,61,0.00,CLR,CLR,0.00,WeatherDisplay:10.37,2013-10-26 16:37:00,
2013-10-26 12:42:00,44.1,31.5,30.77,SSW,193,10.0,24.0,61,0.00,CLR,CLR,0.00,WeatherDisplay:10.37,2013-10-26 16:42:00,
2013-10-26 12:52:00,44.1,31.1,30.77,SSW,199,12.0,18.0,60,0.00,CLR,CLR,0.00,WeatherDisplay:10.37,2013-10-26 16:52:00,
2013-10-26 12:57:00,44.0,31.4,30.77,South,187,8.0,18.0,61,0.00,CLR,CLR,0.00,WeatherDisplay:10.37,2013-10-26 16:57:00,
2013-10-26 13:02:00,44.0,31.8,30.77,South,183,10.0,15.0,62,0.00,CLR,CLR,0.00,WeatherDisplay:10.37,2013-10-26 17:02:00,
2013-10-26 13:07:00,44.0,31.8,30.76,South,183,12.0,16.0,62,0.00,CLR,CLR,0.00,WeatherDisplay:10.37,2013-10-26 17:07:00,
2013-10-26 13:12:00,44.0,31.8,30.76,South,185,9.0,17.0,62,0.00,CLR,CLR,0.00,WeatherDisplay:10.37,2013-10-26 17:12:00,
2013-10-26 13:17:00,44.2,31.6,30.76,South,180,12.0,18.0,61,0.00,CLR,CLR,0.00,WeatherDisplay:10.37,2013-10-26 17:17:00,
2013-10-26 13:22:00,44.4,32.2,30.76,South,182,8.0,15.0,62,0.00,CLR,CLR,0.00,WeatherDisplay:10.37,2013-10-26 17:22:00,
2013-10-26 13:27:00,44.5,32.3,30.75,South,190,8.0,12.0,62,0.00,CLR,CLR,0.00,WeatherDisplay:10.37,2013-10-26 17:27:00,
2013-10-26 13:32:00,44.6,32.0,30.75,South,191,8.0,15.0,61,0.00,CLR,CLR,0.00,WeatherDisplay:10.37,2013-10-26 17:32:00,
2013-10-26 13:37:00,44.8,31.8,30.75,SSW,193,12.0,15.0,60,0.00,CLR,CLR,0.00,WeatherDisplay:10.37,2013-10-26 17:37:00,
2013-10-26 13:42:00,45.0,31.5,30.75,South,191,14.0,18.0,59,0.00,CLR,CLR,0.00,WeatherDisplay:10.37,2013-10-26 17:42:00,
2013-10-26 13:47:00,45.1,32.0,30.75,South,190,9.0,14.0,60,0.00,CLR,CLR,0.00,WeatherDisplay:10.37,2013-10-26 17:47:00,
2013-10-26 13:52:00,45.2,32.1,30.75,SSW,192,8.0,20.0,60,0.00,CLR,CLR,0.00,WeatherDisplay:10.37,2013-10-26 17:52:00,
2013-10-26 13:57:00,45.3,31.8,30.75,SSW,198,10.0,20.0,59,0.00,CLR,CLR,0.00,WeatherDisplay:10.37,2013-10-26 17:57:00,
2013-10-26 14:02:00,45.5,32.4,30.75,SSW,197,8.0,15.0,60,0.00,CLR,CLR,0.00,WeatherDisplay:10.37,2013-10-26 18:02:00,
2013-10-26 14:07:00,45.5,32.4,30.75,South,188,8.0,17.0,60,0.00,CLR,CLR,0.00,WeatherDisplay:10.37,2013-10-26 18:07:00,
2013-10-26 14:12:00,45.5,33.2,30.75,South,189,8.0,18.0,62,0.00,CLR,CLR,0.00,WeatherDisplay:10.37,2013-10-26 18:12:00,
2013-10-26 14:17:00,45.5,32.0,30.75,SSW,193,8.0,16.0,59,0.00,CLR,CLR,0.00,WeatherDisplay:10.37,2013-10-26 18:17:00,
2013-10-26 14:22:00,45.5,32.0,30.75,SSW,203,9.0,16.0,59,0.00,CLR,CLR,0.00,WeatherDisplay:10.37,2013-10-26 18:22:00,
2013-10-26 14:27:00,45.6,32.5,30.74,SSW,199,6.0,16.0,60,0.00,CLR,CLR,0.00,WeatherDisplay:10.37,2013-10-26 18:27:00,
2013-10-26 14:32:00,45.6,31.7,30.74,SSW,202,7.0,13.0,58,0.00,CLR,CLR,0.00,WeatherDisplay:10.37,2013-10-26 18:32:00,
2013-10-26 14:37:00,45.8,31.9,30.74,SSW,204,10.0,14.0,58,0.00,CLR,CLR,0.00,WeatherDisplay:10.37,2013-10-26 18:37:00,
2013-10-26 14:42:00,45.9,32.3,30.74,SSW,196,6.0,14.0,59,0.00,CLR,CLR,0.00,WeatherDisplay:10.37,2013-10-26 18:42:00,
2013-10-26 14:47:00,45.9,32.0,30.74,SSW,194,10.0,15.0,58,0.00,CLR,CLR,0.00,WeatherDisplay:10.37,2013-10-26 18:47:00,
2013-10-26 14:52:00,46.0,32.0,30.74,SSW,202,7.0,13.0,58,0.00,CLR,CLR,0.00,WeatherDisplay:10.37,2013-10-26 18:52:00,
2013-10-26 14:57:00,46.1,32.1,30.74,SSW,201,8.0,13.0,58,0.00,CLR,CLR,0.00,WeatherDisplay:10.37,2013-10-26 18:57:00,
2013-10-26 15:02:00,46.1,31.7,30.74,SSW,202,8.0,18.0,57,0.00,CLR,CLR,0.00,WeatherDisplay:10.37,2013-10-26 19:02:00,
2013-10-26 15:07:00,46.0,32.0,30.74,SSW,198,8.0,12.0,58,0.00,CLR,CLR,0.00,WeatherDisplay:10.37,2013-10-26 19:07:00,
2013-10-26 15:12:00,45.9,32.8,30.74,SSW,194,7.0,14.0,60,0.00,CLR,CLR,0.00,WeatherDisplay:10.37,2013-10-26 19:12:00,
2013-10-26 15:17:00,45.9,31.9,30.74,SSW,195,13.0,16.0,58,0.00,CLR,CLR,0.00,WeatherDisplay:10.37,2013-10-26 19:17:00,
2013-10-26 15:22:00,45.8,32.3,30.74,SSW,192,6.0,13.0,59,0.00,CLR,CLR,0.00,WeatherDisplay:10.37,2013-10-26 19:22:00,
2013-10-26 15:27:00,45.8,31.9,30.74,SSW,201,9.0,16.0,58,0.00,CLR,CLR,0.00,WeatherDisplay:10.37,2013-10-26 19:27:00,
2013-10-26 15:32:00,45.8,32.3,30.74,SSW,196,7.0,12.0,59,0.00,CLR,CLR,0.00,WeatherDisplay:10.37,2013-10-26 19:32:00,
2013-10-26 15:37:00,45.8,32.3,30.74,SSW,193,8.0,13.0,59,0.00,CLR,CLR,0.00,WeatherDisplay:10.37,2013-10-26 19:37:00,
2013-10-26 15:42:00,45.8,32.7,30.74,SSW,192,9.0,13.0,60,0.00,CLR,CLR,0.00,WeatherDisplay:10.37,2013-10-26 19:42:00,
2013-10-26 15:47:00,45.9,32.4,30.74,SSW,195,8.0,17.0,59,0.00,CLR,CLR,0.00,WeatherDisplay:10.37,2013-10-26 19:47:00,
2013-10-26 15:52:00,45.9,32.4,30.73,SSW,197,8.0,12.0,59,0.00,CLR,CLR,0.00,WeatherDisplay:10.37,2013-10-26 19:52:00,
2013-10-26 15:57:00,46.0,32.5,30.73,SSW,194,8.0,20.0,59,0.00,CLR,CLR,0.00,WeatherDisplay:10.37,2013-10-26 19:57:00,
2013-10-26 16:02:00,46.1,32.6,30.73,SSW,193,6.0,12.0,59,0.00,CLR,CLR,0.00,WeatherDisplay:10.37,2013-10-26 20:02:00,
2013-10-26 16:07:00,46.2,32.6,30.73,SSW,205,5.0,17.0,59,0.00,CLR,CLR,0.00,WeatherDisplay:10.37,2013-10-26 20:07:00,
2013-10-26 16:12:00,46.2,32.7,30.73,SSW,209,6.0,12.0,59,0.00,CLR,CLR,0.00,WeatherDisplay:10.37,2013-10-26 20:12:00,
2013-10-26 16:17:00,46.2,32.7,30.73,SSW,201,6.0,16.0,59,0.00,CLR,CLR,0.00,WeatherDisplay:10.37,2013-10-26 20:17:00,
2013-10-26 16:22:00,46.1,32.6,30.73,SSW,193,9.0,14.0,59,0.00,CLR,CLR,0.00,WeatherDisplay:10.37,2013-10-26 20:22:00,
2013-10-26 16:27:00,46.0,32.9,30.73,South,190,9.0,10.0,60,0.00,CLR,CLR,0.00,WeatherDisplay:10.37,2013-10-26 20:27:00,
2013-10-26 16:32:00,46.0,32.9,30.73,SSW,192,6.0,12.0,60,0.00,CLR,CLR,0.00,WeatherDisplay:10.37,2013-10-26 20:32:00,
2013-10-26 16:37:00,46.0,32.9,30.73,SSW,201,8.0,13.0,60,0.00,CLR,CLR,0.00,WeatherDisplay:10.37,2013-10-26 20:37:00,
2013-10-26 16:42:00,46.0,32.9,30.73,SSW,206,7.0,12.0,60,0.00,CLR,CLR,0.00,WeatherDisplay:10.37,2013-10-26 20:42:00,
2013-10-26 16:47:00,46.0,32.9,30.73,SSW,206,7.0,12.0,60,0.00,CLR,CLR,0.00,WeatherDisplay:10.37,2013-10-26 20:47:00,
2013-10-26 16:52:00,46.1,32.6,30.73,SSW,201,8.0,13.0,59,0.00,CLR,CLR,0.00,WeatherDisplay:10.37,2013-10-26 20:52:00,
2013-10-26 17:02:00,46.1,33.0,30.74,SSW,207,7.0,13.0,60,0.00,CLR,CLR,0.00,WeatherDisplay:10.37,2013-10-26 21:02:00,
2013-10-26 17:07:00,46.1,33.4,30.74,SSW,203,5.0,12.0,61,0.00,CLR,CLR,0.00,WeatherDisplay:10.37,2013-10-26 21:07:00,
2013-10-26 17:12:00,46.0,32.9,30.74,SSW,206,3.0,10.0,60,0.00,CLR,CLR,0.00,WeatherDisplay:10.37,2013-10-26 21:12:00,
2013-10-26 17:17:00,46.0,32.9,30.74,SSW,205,8.0,12.0,60,0.00,CLR,CLR,0.00,WeatherDisplay:10.37,2013-10-26 21:17:00,
2013-10-26 17:22:00,46.1,33.0,30.74,SSW,199,6.0,12.0,60,0.00,CLR,CLR,0.00,WeatherDisplay:10.37,2013-10-26 21:22:00,
2013-10-26 17:27:00,46.1,33.0,30.74,SSW,199,6.0,13.0,60,0.00,CLR,CLR,0.00,WeatherDisplay:10.37,2013-10-26 21:27:00,
2013-10-26 17:32:00,46.1,33.0,30.73,SSW,202,7.0,12.0,60,0.00,CLR,CLR,0.00,WeatherDisplay:10.37,2013-10-26 21:32:00,
2013-10-26 17:37:00,46.1,33.0,30.74,SSW,196,8.0,13.0,60,0.00,CLR,CLR,0.00,WeatherDisplay:10.37,2013-10-26 21:37:00,
2013-10-26 17:42:00,46.1,33.0,30.74,SSW,198,7.0,12.0,60,0.00,CLR,CLR,0.00,WeatherDisplay:10.37,2013-10-26 21:42:00,
2013-10-26 17:47:00,46.2,33.1,30.74,SSW,204,7.0,10.0,60,0.00,CLR,CLR,0.00,WeatherDisplay:10.37,2013-10-26 21:47:00,
2013-10-26 17:52:00,46.2,33.5,30.74,SSW,203,5.0,10.0,61,0.00,CLR,CLR,0.00,WeatherDisplay:10.37,2013-10-26 21:52:00,
2013-10-26 17:57:00,46.1,33.4,30.74,SSW,210,5.0,8.0,61,0.00,CLR,CLR,0.00,WeatherDisplay:10.37,2013-10-26 21:57:00,
2013-10-26 18:02:00,46.1,33.4,30.74,SSW,211,6.0,12.0,61,0.00,CLR,CLR,0.00,WeatherDisplay:10.37,2013-10-26 22:02:00,
2013-10-26 18:07:00,46.1,33.4,30.75,SSW,201,7.0,12.0,61,0.00,CLR,CLR,0.00,WeatherDisplay:10.37,2013-10-26 22:07:00,
2013-10-26 18:12:00,46.2,33.5,30.75,SSW,204,5.0,10.0,61,0.00,CLR,CLR,0.00,WeatherDisplay:10.37,2013-10-26 22:12:00,
2013-10-26 18:17:00,46.1,33.4,30.75,SSW,209,6.0,10.0,61,0.00,CLR,CLR,0.00,WeatherDisplay:10.37,2013-10-26 22:17:00,
2013-10-26 18:22:00,46.1,33.4,30.75,SSW,203,6.0,9.0,61,0.00,CLR,CLR,0.00,WeatherDisplay:10.37,2013-10-26 22:22:00,
2013-10-26 18:27:00,46.1,33.4,30.75,SSW,204,7.0,10.0,61,0.00,CLR,CLR,0.00,WeatherDisplay:10.37,2013-10-26 22:27:00,
2013-10-26 18:32:00,46.2,33.9,30.75,SSW,201,6.0,18.0,62,0.00,CLR,CLR,0.00,WeatherDisplay:10.37,2013-10-26 22:32:00,
2013-10-26 18:37:00,46.2,33.8,30.75,SSW,202,5.0,12.0,62,0.00,CLR,CLR,0.00,WeatherDisplay:10.37,2013-10-26 22:37:00,
2013-10-26 18:42:00,46.1,33.8,30.75,SSW,211,7.0,12.0,62,0.00,CLR,CLR,0.00,WeatherDisplay:10.37,2013-10-26 22:42:00,
2013-10-26 18:47:00,46.0,34.1,30.75,SSW,209,5.0,10.0,63,0.00,CLR,CLR,0.00,WeatherDisplay:10.37,2013-10-26 22:47:00,
2013-10-26 18:52:00,46.0,34.1,30.75,SSW,205,7.0,12.0,63,0.00,CLR,CLR,0.00,WeatherDisplay:10.37,2013-10-26 22:52:00,
2013-10-26 18:57:00,46.1,34.2,30.75,SSW,206,8.0,15.0,63,0.00,CLR,CLR,0.00,WeatherDisplay:10.37,2013-10-26 22:57:00,
2013-10-26 19:02:00,46.1,34.6,30.75,SW,217,8.0,17.0,64,0.00,CLR,CLR,0.00,WeatherDisplay:10.37,2013-10-26 23:02:00,
2013-10-26 19:07:00,46.1,34.6,30.75,SW,214,8.0,14.0,64,0.00,CLR,CLR,0.00,WeatherDisplay:10.37,2013-10-26 23:07:00,
2013-10-26 19:12:00,46.1,34.9,30.75,SSW,202,10.0,17.0,65,0.00,CLR,CLR,0.00,WeatherDisplay:10.37,2013-10-26 23:12:00,
2013-10-26 19:17:00,46.0,34.9,30.75,SSW,208,5.0,13.0,65,0.00,CLR,CLR,0.00,WeatherDisplay:10.37,2013-10-26 23:17:00,
2013-10-26 19:22:00,46.0,34.9,30.76,SW,215,9.0,13.0,65,0.00,CLR,CLR,0.00,WeatherDisplay:10.37,2013-10-26 23:22:00,
2013-10-26 19:27:00,46.0,35.3,30.76,SW,215,7.0,10.0,66,0.00,CLR,CLR,0.00,WeatherDisplay:10.37,2013-10-26 23:27:00,
2013-10-26 19:32:00,45.9,35.1,30.76,SSW,212,7.0,13.0,66,0.00,CLR,CLR,0.00,WeatherDisplay:10.37,2013-10-26 23:32:00,
2013-10-26 19:37:00,45.8,35.1,30.76,SSW,209,6.0,16.0,66,0.00,CLR,CLR,0.00,WeatherDisplay:10.37,2013-10-26 23:37:00,
2013-10-26 19:42:00,45.7,35.0,30.76,SSW,212,7.0,13.0,66,0.00,CLR,CLR,0.00,WeatherDisplay:10.37,2013-10-26 23:42:00,
2013-10-26 19:47:00,45.7,35.4,30.76,SSW,212,10.0,15.0,67,0.00,CLR,CLR,0.00,WeatherDisplay:10.37,2013-10-26 23:47:00,
2013-10-26 19:52:00,45.5,35.2,30.76,SSW,208,8.0,12.0,67,0.00,CLR,CLR,0.00,WeatherDisplay:10.37,2013-10-26 23:52:00,
2013-10-26 19:57:00,45.2,35.3,30.76,SSW,209,6.0,15.0,68,0.00,CLR,CLR,0.00,WeatherDisplay:10.37,2013-10-26 23:57:00,
2013-10-26 20:02:00,45.1,35.2,30.76,SW,217,9.0,14.0,68,0.00,CLR,CLR,0.00,WeatherDisplay:10.37,2013-10-27 00:02:00,
2013-10-26 20:07:00,45.0,35.4,30.76,SW,214,7.0,13.0,69,0.00,CLR,CLR,0.00,WeatherDisplay:10.37,2013-10-27 00:07:00,
2013-10-26 20:12:00,44.9,35.4,30.76,SSW,213,8.0,12.0,69,0.00,CLR,CLR,0.00,WeatherDisplay:10.37,2013-10-27 00:12:00,
2013-10-26 20:17:00,44.9,35.4,30.76,SW,214,7.0,12.0,69,0.00,CLR,CLR,0.00,WeatherDisplay:10.37,2013-10-27 00:17:00,
2013-10-26 20:22:00,45.0,35.4,30.76,SSW,208,8.0,12.0,69,0.00,CLR,CLR,0.00,WeatherDisplay:10.37,2013-10-27 00:22:00,
2013-10-26 20:27:00,44.9,35.7,30.76,SSW,207,7.0,10.0,70,0.00,CLR,CLR,0.00,WeatherDisplay:10.37,2013-10-27 00:27:00,
2013-10-26 20:32:00,44.9,35.7,30.76,SSW,204,7.0,12.0,70,0.00,CLR,CLR,0.00,WeatherDisplay:10.37,2013-10-27 00:32:00,
2013-10-26 20:37:00,44.9,35.7,30.76,SSW,207,7.0,12.0,70,0.00,CLR,CLR,0.00,WeatherDisplay:10.37,2013-10-27 00:37:00,
2013-10-26 20:42:00,44.9,35.7,30.76,SSW,212,6.0,10.0,70,0.00,CLR,CLR,0.00,WeatherDisplay:10.37,2013-10-27 00:42:00,
2013-10-26 20:47:00,44.8,36.0,30.76,SSW,213,6.0,10.0,71,0.00,CLR,CLR,0.00,WeatherDisplay:10.37,2013-10-27 00:47:00,
2013-10-26 20:52:00,44.7,35.9,30.76,SSW,206,8.0,12.0,71,0.00,CLR,CLR,0.00,WeatherDisplay:10.37,2013-10-27 00:52:00,
2013-10-26 20:57:00,44.9,36.0,30.76,SSW,206,9.0,13.0,71,0.00,CLR,CLR,0.00,WeatherDisplay:10.37,2013-10-27 00:57:00,
2013-10-26 21:02:00,45.0,36.2,30.76,SSW,210,5.0,12.0,71,0.00,CLR,CLR,0.00,WeatherDisplay:10.37,2013-10-27 01:02:00,
2013-10-26 21:12:00,45.1,36.2,30.77,SW,221,5.0,9.0,71,0.00,CLR,CLR,0.00,WeatherDisplay:10.37,2013-10-27 01:12:00,
2013-10-26 21:17:00,45.1,37.0,30.78,WSW,238,6.0,13.0,73,0.00,CLR,CLR,0.00,WeatherDisplay:10.37,2013-10-27 01:17:00,
2013-10-26 21:22:00,44.9,38.1,30.79,WSW,246,5.0,9.0,77,0.01,RA,RA,0.01,WeatherDisplay:10.37,2013-10-27 01:22:00,
2013-10-26 21:27:00,44.4,38.6,30.80,West,276,3.0,7.0,80,0.02,RA,RA,0.03,WeatherDisplay:10.37,2013-10-27 01:27:00,
2013-10-26 21:32:00,43.5,38.7,30.82,WNW,289,6.0,15.0,83,0.02,RA,RA,0.05,WeatherDisplay:10.37,2013-10-27 01:32:00,
2013-10-26 21:37:00,42.1,37.9,30.82,West,280,3.0,15.0,85,0.02,RA,RA,0.08,WeatherDisplay:10.37,2013-10-27 01:37:00,
2013-10-26 21:42:00,41.3,37.7,30.82,West,276,6.0,9.0,87,0.01,RA,RA,0.09,WeatherDisplay:10.37,2013-10-27 01:42:00,
2013-10-26 21:47:00,40.8,37.8,30.82,West,277,3.0,8.0,89,0.01,RA,RA,0.10,WeatherDisplay:10.37,2013-10-27 01:47:00,
2013-10-26 21:52:00,40.4,37.4,30.81,WNW,293,2.0,8.0,89,0.00,RA,RA,0.10,WeatherDisplay:10.37,2013-10-27 01:52:00,
2013-10-26 21:57:00,40.2,37.5,30.81,West,266,2.0,4.0,90,0.00,CLR,CLR,0.10,WeatherDisplay:10.37,2013-10-27 01:57:00,
2013-10-26 22:02:00,40.0,37.6,30.80,South,191,3.0,5.0,91,0.00,CLR,CLR,0.10,WeatherDisplay:10.37,2013-10-27 02:02:00,
2013-10-26 22:07:00,39.8,37.4,30.80,South,177,1.0,5.0,91,0.00,CLR,CLR,0.10,WeatherDisplay:10.37,2013-10-27 02:07:00,
2013-10-26 22:12:00,39.7,37.6,30.81,South,177,1.0,4.0,92,0.00,CLR,CLR,0.10,WeatherDisplay:10.37,2013-10-27 02:12:00,
2013-10-26 22:17:00,39.5,37.4,30.81,South,177,3.0,6.0,92,0.00,CLR,CLR,0.10,WeatherDisplay:10.37,2013-10-27 02:17:00,
2013-10-26 22:22:00,39.4,37.3,30.82,South,178,5.0,6.0,92,0.00,CLR,CLR,0.10,WeatherDisplay:10.37,2013-10-27 02:22:00,
2013-10-26 22:27:00,39.2,37.4,30.82,South,178,1.0,5.0,93,0.00,CLR,CLR,0.10,WeatherDisplay:10.37,2013-10-27 02:27:00,
2013-10-26 22:32:00,39.2,37.3,30.82,South,178,1.0,5.0,93,0.00,CLR,CLR,0.10,WeatherDisplay:10.37,2013-10-27 02:32:00,
2013-10-26 22:37:00,39.1,37.2,30.82,South,178,3.0,6.0,93,0.00,CLR,CLR,0.10,WeatherDisplay:10.37,2013-10-27 02:37:00,
2013-10-26 22:42:00,39.1,37.2,30.82,South,178,0.0,5.0,93,0.00,CLR,CLR,0.10,WeatherDisplay:10.37,2013-10-27 02:42:00,
2013-10-26 22:47:00,39.1,37.5,30.82,South,178,3.0,6.0,94,0.00,CLR,CLR,0.10,WeatherDisplay:10.37,2013-10-27 02:47:00,
2013-10-26 22:52:00,39.0,37.4,30.82,South,178,3.0,6.0,94,0.00,CLR,CLR,0.10,WeatherDisplay:10.37,2013-10-27 02:52:00,
2013-10-26 22:57:00,39.0,37.4,30.82,South,178,0.0,2.0,94,0.00,CLR,CLR,0.10,WeatherDisplay:10.37,2013-10-27 02:57:00,
2013-10-26 23:02:00,38.9,37.3,30.82,South,178,0.0,2.0,94,0.00,CLR,CLR,0.10,WeatherDisplay:10.37,2013-10-27 03:02:00,
2013-10-26 23:07:00,38.7,37.2,30.83,South,178,1.0,4.0,94,0.00,CLR,CLR,0.10,WeatherDisplay:10.37,2013-10-27 03:07:00,
2013-10-26 23:17:00,38.5,36.9,30.83,South,178,0.0,2.0,94,0.00,CLR,CLR,0.10,WeatherDisplay:10.37,2013-10-27 03:17:00,
2013-10-26 23:22:00,38.2,36.6,30.83,South,178,0.0,1.0,94,0.00,CLR,CLR,0.10,WeatherDisplay:10.37,2013-10-27 03:22:00,
2013-10-26 23:27:00,37.9,36.3,30.83,South,178,0.0,4.0,94,0.00,CLR,CLR,0.10,WeatherDisplay:10.37,2013-10-27 03:27:00,
2013-10-26 23:32:00,37.6,36.0,30.83,South,178,0.0,0.0,94,0.01,RA,RA,0.11,WeatherDisplay:10.37,2013-10-27 03:32:00,
2013-10-26 23:37:00,37.4,35.8,30.83,South,178,0.0,0.0,94,0.00,RA,RA,0.11,WeatherDisplay:10.37,2013-10-27 03:37:00,
2013-10-26 23:42:00,37.3,35.7,30.83,South,178,0.0,1.0,94,0.00,,,0.11,WeatherDisplay:10.37,2013-10-27 03:42:00,
2013-10-26 23:47:00,37.2,35.6,30.83,South,178,0.0,2.0,94,0.00,CLR,CLR,0.11,WeatherDisplay:10.37,2013-10-27 03:47:00,
2013-10-26 23:52:00,37.2,35.9,30.83,South,178,0.0,0.0,95,0.00,CLR,CLR,0.11,WeatherDisplay:10.37,2013-10-27 03:52:00,
2013-10-26 23:57:00,37.0,35.4,30.83,South,178,0.0,0.0,94,0.00,CLR,CLR,0.11,WeatherDisplay:10.37,2013-10-27 03:57:00,